Location: Geroldsau
(48.7259°N, 8.2466°E)
Time: 09:58:00
(UTC+00:00)

Lacrosse 4 Rocket - Pass Details

Date: 20 June 2021
Orbit: 543 x 614 km, 68.0° (Epoch: 27 July)

Event Time Altitude Azimuth Distance (km) Brightness Sun altitude
Rises 01:08:21 0° 327° (NNW) 2,752 5.4 -14.5°
Reaches altitude 10° 01:10:35 10° 328° (NNW) 1,843 4.5 -14.3°
Maximum altitude 01:14:42 83° 57° (ENE) 558 1.3 -14.0°
Drops below altitude 10° 01:18:45 10° 146° (SE) 1,807 3.7 -13.8°
Enters shadow 01:19:59 - 146° (SSE) 2,313 4.2 -13.7°
